Flag for Chad

Past Weather in N'Djamena, Chad — Yesterday and Last 2 Weeks

Now
73 °F

Clear.


Feels Like: 72 °F
Forecast: 102 / 69 °F
Wind: 3 mph from Southwest

Location: Ndjamena
Current Time: Oct 20, 2020 at 7:13:38 am
Latest Report: Oct 20, 2020 at 6:00 am
Visibility: 5 mi
Pressure29.80 "Hg
Humidity: 89%
Dew Point: 70 °F
Location of N'DjamenaLocation

Past Weather in N'Djamena — Graph

°F

N'Djamena Temperature Yesterday

Maximum temperature yesterday: 102 °F (at 1:00 pm)
Minimum temperature yesterday: 75 °F (at 5:00 am)
Average temperature yesterday: 85 °F

High & Low Weather Summary for the Past Weeks

 TemperatureHumidityPressure
High102 °F (Oct 11, 2:00 pm)94% (Oct 9, 3:00 am)29.95 "Hg (Oct 9, 3:00 am)
Low72 °F (Oct 20, 2:00 am)14% (Oct 19, 3:00 pm)29.71 "Hg (Oct 11, 3:00 pm)
Average85 °F66%29.83 "Hg
* Reported Oct 5 5:00 am — Oct 20 5:00 am, N'Djamena. Weather by CustomWeather, © 2020

Note: Actual official high and low records may vary slightly from our data, if they occured in-between our weather recording intervals... More about our weather records

N'Djamena Weather History for the Previous 24 Hours

Scroll right to see more
 ConditionsComfort  
Time TempWeatherWind HumidityBarometerVisibility
5:00 am
Tue, Oct 20
73 °FClear.6 mph78%29.80 "Hg5 mi
4:00 am72 °FClear.3 mph78%29.80 "Hg5 mi
3:00 am72 °FClear.2 mph73%29.80 "Hg5 mi
2:00 am72 °FClear.1 mph69%29.80 "Hg5 mi
1:00 am73 °FClear.No wind65%29.80 "Hg5 mi
12:00 am79 °FClear.5 mph51%29.80 "Hg5 mi
11:00 pm
Mon, Oct 19
77 °FClear.3 mph57%29.80 "Hg5 mi
10:00 pm79 °FClear.5 mph51%29.80 "Hg5 mi
9:00 pm79 °FClear.3 mph48%29.77 "Hg5 mi
8:00 pm81 °FClear.2 mph51%29.77 "Hg4 mi
7:00 pm84 °FClear.5 mph45%29.74 "Hg4 mi
6:00 pm90 °FDuststorm.2 mph38%29.74 "Hg3 mi
5:00 pm97 °FClear.5 mph19%29.74 "Hg5 mi
4:00 pm100 °FClear.7 mph16%29.74 "Hg5 mi
3:00 pm102 °FClear.7 mph14%29.74 "Hg5 mi
2:00 pm102 °FClear.7 mph15%29.77 "Hg5 mi
1:00 pm102 °FClear.2 mph21%29.77 "Hg5 mi
12:00 pm100 °FClear.5 mph21%29.80 "Hg5 mi
9:00 am88 °FClear.5 mph52%29.86 "Hg4 mi
8:00 am84 °FClear.5 mph62%29.83 "Hg4 mi
7:00 am77 °FClear.5 mph79%29.83 "Hg4 mi
Weather by CustomWeather, © 2020

See weather overview